Regional Weather Roundup
Issued by NWS

Home | Current Version | Previous Version | Text Only | Print | Product List | Glossary On
Versions: 1 2 3 4 5 6 7 8 9 10 11 12 13 14 15 16 17 18 19 20 21 22 23 24 25 26 27 28 29 30 31 32 33 34 35 36 37 38 39 40 41 42 43 44 45 46 47 48 49 50
000
ASUS43 KDTX 290410
RWRMI
MICHIGAN HOURLY REGIONAL WEATHER ROUNDUP
NATIONAL WEATHER SERVICE DETROIT/PONTIAC MI
1200 AM EDT WED JUL 29 2015

NOTE: "FAIR" INDICATES FEW OR NO CLOUDS BELOW 12,000 FEET WITH NO
SIGNIFICANT WEATHER AND/OR OBSTRUCTION TO VISIBILITY.

MIZ047>049-052>055-059>063-066>070-074>076-081>083-290500-
SOUTHEAST LOWER MICHIGAN

CITY           SKY/WX    TMP DP  RH WIND       PRES   REMARKS
ADRIAN         PTCLDY    69  64  84 CALM      30.02F
ALMA           PTCLDY    66  65  94 CALM      29.99S
ANN ARBOR      PTCLDY    65  63  93 CALM      30.02S
BAD AXE        CLEAR     67  64  89 CALM      30.02R
DETROIT CITY   PTCLDY    76  62  62 CALM      30.02R
DETROIT        MOCLDY    75  67  76 CALM      30.03R
FLINT          CLEAR     72  64  76 S5        30.01S
GROSSE ILE     PTCLDY    73  70  88 CALM      30.00S
HILLSDALE      PTCLDY    74  64  71 SE6       30.03S
HOWELL         PTCLDY    70  63  78 SE3       30.02S

CITY           SKY/WX    TMP DP  RH WIND       PRES   REMARKS
JACKSON        CLEAR     72  63  73 SE3       30.02S
LAMBERTVILLE   MOCLDY    71  66  85 CALM      30.02S
LANSING        CLEAR     72  63  73 CALM      30.01S
LAPEER         NOT AVBL
MASON          CLEAR     69  61  75 S3        30.01S
MONROE         PTCLDY    68  66  95 CALM      30.01S
MT. CLEMENS    CLEAR     72  66  83 CALM      30.00R
PONTIAC        PTCLDY    75  63  66 S3        30.02S
PORT HOPE        N/A     69  64  84 S3        29.99R
PORT HURON     CLEAR     66  64  94 CALM      30.01S
TRI CITIES     PTCLDY    76  68  76 S5        29.99F
YPSILANTI      PTCLDY    69  63  81 CALM      30.03R
$$
MIZ043>046-050>051-056>058-064>065-071>073-077>080-290500-
SOUTHWEST LOWER MICHIGAN

CITY           SKY/WX    TMP DP  RH WIND       PRES   REMARKS
BATTLE CREEK   CLEAR     78  65  63 SE6       30.01S
BENTON HARBOR  PTCLDY    77  69  76 SE6       29.96S
BIG RAPIDS     PTCLDY    69  64  82 CALM      29.98F
COLDWATER      PTCLDY    72  64  76 SE5       30.01S
HOLLAND        PTCLDY    77  68  73 SE6       29.96F
GRAND RAPIDS   MOCLDY    75  66  73 SE5       29.98F
KALAMAZOO      CLEAR     74  66  76 VRB3      30.00S
MARSHALL       CLEAR     72  64  76 SE3       30.00S
MUSKEGON       CLOUDY    78  64  61 SE6       29.95F
$$
MIZ016>042-290500-
NORTHERN LOWER MICHIGAN

CITY           SKY/WX    TMP DP  RH WIND       PRES   REMARKS
ALPENA         MOCLDY    77  63  61 S8        29.98S
BEAVER ISLAND  PTCLDY    68  64  87 CALM      29.94F
BELLAIRE       MOCLDY    71  65  83 CALM      29.95S
CADILLAC       CLEAR     74  62  66 SE5       29.98F
CHARLEVOIX     MOCLDY    73  64  72 SW5       29.97F
FRANKFORT      PTCLDY    67  62  82 CALM      29.93F
GAYLORD        MOCLDY    77  60  55 S7        30.00S
GRAYLING       MOCLDY    72  62  70 CALM      30.00F
HARBOR SPRINGS MOCLDY    73  66  79 NE3       29.94F
HOUGHTON LAKE  PTCLDY    72  64  76 SE7       30.00F
MANISTEE       PTCLDY    66  61  82 E5        29.93F
OSCODA         PTCLDY    73  65  76 S3        29.98S
PELLSTON       MOCLDY    69  64  84 CALM      29.95F
TRAVERSE CITY  PTCLDY    72  65  78 CALM      29.93F
$$
MIZ007>008-015-290500-
EASTERN UPPER MICHIGAN

CITY           SKY/WX    TMP DP  RH WIND       PRES   REMARKS
KINROSS        CLOUDY    75  63  64 S6        29.94S
MACKINAC ISLAN MOCLDY    74  63  68 S8        29.93F
$$
MIZ004>006-011>014-085-290500-
CENTRAL UPPER MICHIGAN

CITY           SKY/WX    TMP DP  RH WIND       PRES   REMARKS
MANISTIQUE     CLEAR     72  63  73 S7        29.92F
ESCANABA       PTCLDY    72  66  83 S3        29.88F
MENOMINEE      PTCLDY    75  64  69 S7        29.88S
SAWYER-GWINN   CLEAR     70  60  71 S8        29.89F
$$
MIZ001>003-009>011-084-290500-
WESTERN UPPER MICHIGAN

CITY           SKY/WX    TMP DP  RH WIND       PRES   REMARKS
IRON MOUNTAIN  CLEAR     70  64  81 SE3       29.89F
HOUGHTON       CLEAR     74  65  73 S5        29.81F
COPPER HARBOR    N/A     73  62  68 VRB5      29.81S
IRONWOOD       CLEAR     75  70  83 S9        29.79S
$$

ABBREVIATIONS USED IN REMARKS
   TC - TEMPERATURE IN CELSIUS
  WCI - WIND CHILL INDEX
   HX - HEAT INDEX
  VSB - VISIBILITY



USA.gov is the U.S. government's official web portal to all federal, state and local government web resources and services.